Location: Jastrz?bniki
(50.3667°N, 20.3833°E)
Time: 11:39:46
(UTC+00:00)

Cosmos 1805 - Pass Details

Date: 05 August 2024
Orbit: 481 x 484 km, 82.5° (Epoch: 09 September)

Event Time Altitude Azimuth Distance (km) Brightness Sun altitude
Exits shadow 00:10:18 53° 136° (SE) 605 3.3 -20.1°
Maximum altitude 00:10:48 60° 97° (E) 562 3.3 -20.1°
Drops below altitude 10° 00:14:25 10° 17° (NNE) 1,674 7.0 -19.9°
Sets 00:16:32 0° 14° (NNE) 2,559 8.3 -19.8°
